Regional Weather Roundup
Issued by NWS Upton, NY

Current Version | Previous Version | Graphics & Text | Print | Product List | Glossary Off
Versions: 1 2 3 4 5 6 7 8 9 10 11 12 13 14 15 16 17 18 19 20 21 22 23 24 25 26 27 28 29 30 31 32 33 34 35 36 37 38 39 40 41 42 43 44 45 46 47 48 49 50

000
ASUS41 KOKX 290705
RWROKX

REGIONAL WEATHER ROUNDUP
NATIONAL WEATHER SERVICE NEW YORK NY
200 AM EST THU JAN 29 2015

NOTE: "FAIR" INDICATES FEW OR NO CLOUDS BELOW 12,000 FEET WITH NO
SIGNIFICANT WEATHER AND/OR OBSTRUCTIONS TO VISIBILITY.

NYZ071-072-176-178-NJZ106-104-290800-
NEW YORK CITY METRO AREA


CITY           SKY/WX    TMP DP  RH WIND       PRES   REMARKS
CENTRAL PARK   CLEAR     23   1  38 VRB3      30.31R
LAGUARDIA APRT CLEAR     23   6  48 N7        30.30R WCI  15
KENNEDY INTL   CLEAR     21   2  43 N14       30.30S WCI   8
NEWARK/LIBERTY CLEAR     17   3  54 N5        30.30R WCI  10
BRNX BOT. GARD   N/A    N/A N/A N/A N5        30.31R
TETERBORO      CLEAR     21   0  39 N6        30.29S WCI  13
$$

NYZ177-179-078>081-290800-
LONG ISLAND NEW YORK

CITY           SKY/WX    TMP DP  RH WIND       PRES   REMARKS
FARMINGDALE    CLEAR     22   1  40 N7        30.28R WCI  13
ISLIP          CLEAR     21   3  45 N13       30.26R WCI   9
SHIRLEY        CLEAR     19   6  57 N7        30.28R WCI  10
WESTHAMPTON    CLEAR     19   4  51 N6        30.29R WCI  11
MONTAUK POINT    N/A     24   7  48 N9        30.28R WCI  14
$$

NYZ052-065-067-290800-
HUDSON VALLEY

CITY           SKY/WX    TMP DP  RH WIND       PRES   REMARKS
WHITE PLAINS   CLEAR     17  -1  45 N12       30.24S WCI   4
NEWBURGH       CLEAR     12   1  62 CALM      30.29S
MONTGOMERY     PTCLDY     0  -4  83 CALM      30.29R
POUGHKEEPSIE   CLEAR      1  -4  79 CALM      30.32S
ALBANY         PTCLDY     2  -4  76 CALM      30.35S
$$

NJZ001-105-106-008-010-013-015-019>022-104-290800-
NEW JERSEY

CITY           SKY/WX    TMP DP  RH WIND       PRES   REMARKS
NEWARK/LIBERTY CLEAR     17   3  54 N5        30.30R WCI  10
TETERBORO      CLEAR     21   0  39 N6        30.29S WCI  13
CALDWELL       CLEAR     13   2  61 CALM      30.30R
MORRISTOWN     CLEAR     16   1  53 CALM      30.29R
SOMERVILLE     CLEAR     11   1  64 CALM      30.28R
SUSSEX         CLEAR      4  -4  69 CALM      30.28R
ANDOVER          N/A      3  -1  83 CALM      30.28R
TRENTON        CLEAR     20   1  43 NW5       30.29R WCI  13
MILLVILLE      CLEAR     14   8  77 W5        30.31R WCI   6
ATLANTIC CITY  CLEAR     18   4  54 NW6       30.30R WCI  10
WRIGHTSTOWN    CLEAR     18   2  48 NW6       30.28R WCI  10
TOMS RIVER     CLEAR      5   1  85 CALM      30.29S
BELMAR         CLEAR     18   0  45 NW6       30.27S WCI   9
$$

PAZ047>061-062-071-290800-
EASTERN PENNSYLVANIA

CITY           SKY/WX    TMP DP  RH WIND       PRES   REMARKS
PHILADELPHIA   PTCLDY    25   2  37 N5        30.32R WCI  19
ALLENTOWN      CLEAR     14   1  56 W3        30.30S
SCRANTON       PTCLDY    12   3  67 E6        30.28R WCI   3
$$

CTZ002-004>006-009-010-012-RIZ004-006-007-MAZ004-011-015-290800-
SOUTHERN NEW ENGLAND
 IN CT

CITY           SKY/WX    TMP DP  RH WIND       PRES   REMARKS
BRADLEY INTL   CLEAR     13  -3  49 N6        30.28R WCI   4
HARTFORD       CLEAR     16   0  49 N6        30.31R WCI   7
DANBURY        CLEAR      8  -2  63 CALM      30.28R
WTRBRY/OXFORD  CLEAR      9  -6  52 N7        30.24R WCI  -3
BRIDGEPORT     CLEAR     16   1  51 NW5       30.30R WCI   9
MERIDEN        CLEAR      8   1  73 CALM      30.30R
NEW HAVEN      CLEAR     17   2  51 N6        30.29R WCI   9
CHESTER        FAIR      19   1  45 N7        30.26R WCI  10
GROTON         PTCLDY    15  -1  49 N7        30.27R WCI   5
WILLIMANTIC    CLEAR      1  -4  79 CALM      30.27R

 IN RI

CITY           SKY/WX    TMP DP  RH WIND       PRES   REMARKS
PROVIDENCE     PTCLDY     7  -1  70 CALM      30.27R
BLOCK ISLAND   CLEAR     21   3  45 N10       30.24R WCI  10
WESTERLY       PTCLDY    13  -2  51 N3        30.28R

 IN MA

CITY           SKY/WX    TMP DP  RH WIND       PRES   REMARKS
BOSTON         PTCLDY    16  -1  47 NW7       30.27R WCI   6
WORCESTER      CLEAR     11  -7  44 NW8       30.19R WCI  -1
WESTFIELD      PTCLDY     2  -3  80 CALM      30.28R
PROVINCETOWN   MOCLDY    28  18  64 N13G18    30.22R WCI  18
NANTUCKET      CLOUDY    28  20  71 NW14      30.19S WCI  17
$$

ANZ330-335-338-340-345-350-353-355-290800-
COASTAL MARINE OBSERVATIONS


STATION/POSITION TIME  SKY/WX   TEMP    WIND        PRES    VSBY  WAVE
                                AIR SEA DIR/SP/G                  HT/PER
                 (UTC)          (F)     (DEG/KT/KT) (MB)    (MI)  (FT/S)
NY HARB ENTRANCE 0700            28 39  360/ 14/ 19 1025.0          2/12
4S FIRE IS       NOT AVBL
20S FIRE ISLAND  0600               42              1024.9          4/ 5
23SW MTP         0700                                 N/A           4/11
HUDSON CANYON    NOT AVBL
EXECUTION ROCKS  0700            23 33  360/  6/ 10   N/A
WESTERN LI SOUND 0700            24      10/  8/ 12   N/A           0
CENTRAL LI SOUND 0700            23 35  360/ 10/ 12   N/A           1/ 2
EASTERN LI SOUND NOT AVBL
ROBBINS REEF     0700            24     340/  5/  7 1024.6
$$


>>>>>>>>>>>>>>>>>>>>>>>>>>>> KEY <<<<<<<<<<<<<<<<<<<<<<<<<<<
>                                                          <
>     SKY/WX - SKY CONDITION/PRESENT WEATHER               <
>     TMP    - TEMPERATURE IN FAHRENHEIT                   <
>     DP     - DEWPOINT IN FAHRENHEIT                      <
>     RH     - RELATIVE HUMIDITY IN PERCENT                <
>     WIND   - DIRECTION AND SPEED IN MPH                  <
>     PRES   - MEAN SEA LEVEL PRESSURE IN INCHES OF HG     <
>     WCI    - WIND CHILL INDEX                            <
>     VSB    - VISIBILITY IN MILES                         <
>     HX     - HEAT INDEX                                  <
>     TC     - TEMPERATURE IN CELSIUS                      <
>     VRB    - VARIABLE WIND DIRECTION                     <
>                                                          <
>>>>>>>>>>>>>>>>>>>>>>>>>>>> KEY <<<<<<<<<<<<<<<<<<<<<<<<<<<




USA.gov is the U.S. government's official web portal to all federal, state and local government web resources and services.